This demonstration page uses our WeatherBlox Daily Observations layout. Learn more.

38.88101, -77.10428

Hourly Observations for January 14, 2020

Temp ( °F °C ) Dew Point ( °F °C ) Humidity (%) Winds ( mph kmh ) Pressure ( in mb ) Visibility ( mi km ) Precip ( " mm )
12:52 am 00:52 Cloudy 44 6.7 42 5.6 93 93 NE 5 7 30.35 1028 10 16.0934 0 0
1:52 am 01:52 Cloudy 45 7.2 43 6.1 93 93 ENE 7 11 30.34 1028 10 16.0934 0 0
2:52 am 02:52 Cloudy 45 7.2 42 5.6 90 90 Calm 30.34 1027 10 16.0934 0 0
3:52 am 03:52 Cloudy 45 7.2 41 5 86 86 N 3 6 30.33 1027 10 16.0934 0 0
4:52 am 04:52 Cloudy 46 7.8 43 6.1 89 89 NNE 6 9 30.32 1027 10 16.0934 0 0
5:52 am 05:52 Cloudy 47 8.3 43 6.1 86 86 E 3 6 30.32 1027 10 16.0934 0 0
6:03 am 06:03 Cloudy 47 8.3 43 6.1 86 86 ENE 6 9 30.32 1027 10 16.0934 0 0
6:25 am 06:25 Cloudy 47 8.3 43 6.1 86 86 Calm 30.33 1027 10 16.0934 0 0
6:52 am 06:52 Cloudy 46 7.8 44 6.7 93 93 E 3 6 30.32 1027 9 14.48406 0 0
7:22 am 07:22 Cloudy with Light Rain 47 8.3 44 6.7 90 90 SE 6 9 30.31 1026 8 12.87472 0.001 0.001
7:52 am 07:52 Cloudy with Light Rain 47 8.3 44 6.7 90 90 Calm 30.32 1027 5 8.0467 0.01 0.254
8:52 am 08:52 Cloudy with Mist and Fog 47 8.3 45 7.2 93 93 Calm 30.29 1026 6 9.65604 0.01 0.254
9:52 am 09:52 Cloudy with Mist and Fog 47 8.3 45 7.2 93 93 ENE 8 13 30.28 1025 5 8.0467 0.001 0.001
10:04 am 10:04 Cloudy with Light Rain 47 8.3 45 7.2 93 93 NE 7 11 30.29 1026 5 8.0467 0.001 0.001
10:32 am 10:32 Cloudy with Light Rain 47 8.3 45 7.2 93 93 NE 5 7 30.29 1026 4 6.43736 0.001 0.001
10:46 am 10:46 Cloudy with Mist and Fog 46 8 46 8 100 100 NE 7 11 30.27 1025 4 6.43736 0.01 0.254
10:52 am 10:52 Cloudy with Mist and Fog 47 8.3 45 7.2 93 93 NE 8 13 30.26 1025 4 6.43736 0.01 0.254
11:37 am 11:37 Cloudy with Light Rain 48 8.9 46 7.8 93 93 E 5 7 30.24 1024 2.5 4.02335 0.001 0.001
11:52 am 11:52 Cloudy with Mist and Fog 48 8.9 46 7.8 93 93 ESE 3 6 30.23 1024 5 8.0467 0.001 0.001
12:04 pm 12:04 Cloudy 48 8.9 45 7.2 89 89 ESE 5 7 30.23 1024 7 11.26538 0 0
12:52 pm 12:52 Cloudy 49 9.4 46 7.8 90 90 ESE 5 7 30.18 1022 9 14.48406 0 0
1:45 pm 13:45 Cloudy 49 9.4 46 7.8 90 90 SSE 3 6 30.16 1021 9 14.48406 0 0
1:52 pm 13:52 Cloudy with Mist and Fog 49 9.4 46 7.8 90 90 ESE 3 6 30.16 1021 6 9.65604 0 0
2:03 pm 14:03 Cloudy with Light Drizzle 48 8.9 46 7.8 93 93 ESE 6 9 30.16 1021 2.5 4.02335 0.001 0.001
2:09 pm 14:09 Cloudy with Light Drizzle 48 8.9 47 8.3 96 96 SE 6 9 30.16 1021 1.75 2.816345 0.001 0.001
2:16 pm 14:16 Cloudy with Light Drizzle 48 8.9 47 8.3 96 96 Calm 30.16 1021 1.5 2.41401 0.001 0.001
2:52 pm 14:52 Cloudy with Light Drizzle 48 8.9 47 8.3 96 96 ESE 6 9 30.13 1020 1.75 2.816345 0.01 0.254
2:58 pm 14:58 Cloudy with Light Drizzle 48 8.9 47 8.3 96 96 ESE 6 9 30.13 1020 2 3.21868 0.001 0.001
3:17 pm 15:17 Cloudy with Light Drizzle 48 8.9 47 8.3 96 96 ESE 5 7 30.13 1020 3 4.82802 0.001 0.001
3:52 pm 15:52 Cloudy 48 8.9 46 7.8 93 93 ESE 6 9 30.11 1020 7 11.26538 0.001 0.001
4:52 pm 16:52 Cloudy with Light Drizzle 48 8.9 47 8.3 96 96 SE 3 6 30.12 1020 3 4.82802 0.001 0.001
5:21 pm 17:21 Cloudy with Light Drizzle 48 8.9 47 8.3 96 96 E 3 6 30.12 1020 2.5 4.02335 0.001 0.001
5:41 pm 17:41 Cloudy with Light Drizzle 48 8.9 47 8.3 96 96 Calm 30.13 1020 2 3.21868 0.001 0.001
5:44 pm 17:44 Cloudy with Light Drizzle 48 8.9 47 8.3 96 96 Calm 30.13 1020 1.75 2.816345 0.001 0.001
5:52 pm 17:52 Cloudy with Light Drizzle 48 8.9 47 8.3 96 96 NE 3 6 30.13 1020 1.5 2.41401 0.001 0.001
6:19 pm 18:19 Cloudy with Light Drizzle 48 8.9 47 8.3 96 96 NE 3 6 30.14 1021 1 1.60934 0.001 0.001
6:52 pm 18:52 Cloudy with Light Drizzle 48 8.9 47 8.3 96 96 Calm 30.14 1021 1 1.60934 0.001 0.001
7:12 pm 19:12 Cloudy with Light Drizzle 48 8.9 47 8.3 96 96 NE 6 9 30.15 1021 1.25 2.011675 0.001 0.001
7:52 pm 19:52 Cloudy with Light Drizzle 48 8.9 47 8.3 96 96 E 3 6 30.14 1021 1.25 2.011675 0.001 0.001
8:00 pm 20:00 Cloudy with Light Drizzle 48 8.9 47 8.3 96 96 E 3 6 30.15 1021 2 3.21868 0.001 0.001
8:24 pm 20:24 Cloudy with Light Drizzle 48 8.9 47 8.3 96 96 ENE 3 6 30.15 1021 1.75 2.816345 0.001 0.001
8:35 pm 20:35 Cloudy with Light Drizzle 48 8.9 47 8.3 96 96 ENE 3 6 30.15 1021 0.75 1.207005 0.001 0.001
8:52 pm 20:52 Cloudy with Light Drizzle 48 8.9 47 8.3 96 96 ENE 3 6 30.16 1021 1.25 2.011675 0.001 0.001
8:57 pm 20:57 Cloudy with Light Drizzle 48 8.9 47 8.3 96 96 Calm 30.16 1021 2 3.21868 0.001 0.001
9:13 pm 21:13 Cloudy with Light Drizzle 48 8.9 47 8.3 96 96 Calm 30.16 1021 2.5 4.02335 0.001 0.001
9:22 pm 21:22 Cloudy with Light Drizzle 48 8.9 47 8.3 96 96 Calm 30.16 1021 3 4.82802 0.001 0.001
9:52 pm 21:52 Cloudy 48 8.9 47 8.3 96 96 N 3 6 30.16 1021 7 11.26538 0.001 0.001
10:52 pm 22:52 Cloudy 49 9.4 47 8.3 93 93 W 5 7 30.17 1022 7 11.26538 0 0
11:52 pm 23:52 Cloudy 49 9.4 47 8.3 93 93 Calm 30.18 1022 7 11.26538 0 0

Powered by AerisWeather